Location: Franzen
(48.6167°N, 15.3833°E)
Time: 15:39:20
(UTC+00:00)

Transit 2A Rocket - Pass Details

Date: 06 August 2021
Orbit: 586 x 916 km, 66.7° (Epoch: 23 September)

Event Time Altitude Azimuth Distance (km) Brightness Sun altitude
Rises 22:22:06 0° 305° (NW) 3,359 9.0 -24.3°
Reaches altitude 10° 22:27:21 10° 264° (W) 2,507 7.7 -24.4°
Maximum altitude 22:27:57 10° 258° (WSW) 2,503 7.6 -24.5°
Drops below altitude 10° 22:28:34 10° 252° (WSW) 2,523 7.6 -24.5°
Enters shadow 22:29:18 - 245° (WSW) 2,575 7.6 -24.5°
